星链-36690(STARLINK-36690)

导读

STARLINK-36690是美国SpaceX星链星座的成员卫星,于2026年2月20日发射升空。星链项目旨在构建全球卫星互联网星座,为全球用户提供高速低延迟的宽带服务。该卫星延续星链标准设计,部署于近地轨道,承担覆盖补网与容量扩容任务,进一步完善星链星座全球覆盖能力,支撑星座服务性能提升。

基本信息
目录编号:
67856
目录名称:
STARLINK-36843
国际标识:
2026-034G
轨道中心:
EARTH
卫星名称:
星链-36690
卫星全名:
星链-36690(STARLINK-36690)
卫星状态:
在轨 (已飞行197 天)
发射日期:
2026-02-20 UTC
国别 :
美国 (US)
星等 :
--
轨道信息
数据来源 国际轨道数据
星历时间: 2026-09-05T14:03:33+0800
7小时前
查看轨道信息
半长轴: 6848.835km
偏心率: 0.0000822
轨道倾角: 53.158°
近地点辐角 87.038°
升交点赤经 89.065°
平近点角 273.072°
近地点: 470.135km
远地点: 471.261km
周期: 94.012分钟
每日圈数: 15.317144
详细信息
固有亮度:
5
最大亮度:
2.5
卫星平台:
Starlink V1.0
覆盖范围:
全球
运营商:
太空探索技术公司
运营商所在国:
美国
制造商(研发单位):
太空探索技术公司
制造商所在国:
美国
使用方式:
暂无
卫星简介
Starlink 计划是 SpaceX 推出的全球卫星互联网项目,通过发射低轨道卫星,为全球尤其是偏远地区提供高速、低延迟的互联网服务。自 2019 年起,Starlink 已部署数千颗卫星,旨在缩小全球数字鸿沟,推动互联网普及。该项目还为军事、航空等行业提供通信支持,带来广泛经济效益。
2D轨道图
3D轨道图
轨道高度分析图
轨道倾角分析图
轨道综合分析图
查看轨道综合分析图
交会数据列表
事件ID 空间交会对象 最接近时刻(TCA) 交会距离 交会风险概率(CRP) 交会风险指数(CRI) 操作
CDM_260901-194806-785606-972021
2026-09-01T
19:48:42+0000
2.582 km
极远距离
1.657321E-6 低风险 0.39
CDM_260830-235506-785606-967221
2026-08-30T
23:55:58+0000
2.822 km
极远距离
1.445114E-6 低风险 0.38
CDM_260906-194706-765306-785621
2026-09-06T
19:47:59+0000
2.981 km
极远距离
1.338108E-6 低风险 0.38